Weather History for Long Beach, CA

Change the Weather History Date:

Saturday, February 16, 2013

  Actual Average Record
Temperature  
Mean Temperature 68 °F 58 °F  
Max Temperature 82 °F 67 °F 85 °F (1977)
Min Temperature 53 °F 48 °F 37 °F (1990)
Degree Days  
Heating Degree Days 0 8  
Month to date heating degree days 135 128  
Since 1 July heating degree days 756 807  
Cooling Degree Days 3 0  
Month to date cooling degree days 5 0  
Year to date cooling degree days 5 3  
Growing Degree Days 18 (Base 50)    
Moisture  
Dew Point 26 °F    
Average Humidity 26    
Maximum Humidity 43    
Minimum Humidity 9    
Precipitation  
Precipitation 0.00 in 0.13 in 2.36 in (1980)
Month to date precipitation 0.15 1.70  
Year to date precipitation 1.19 4.30  
Since 1 July precipitation 4.99 8.12  
Sea Level Pressure  
Sea Level Pressure 30.06 in    
Wind  
Wind Speed 5 mph (WNW)    
Max Wind Speed 14 mph    
Max Gust Speed 17 mph    
Visibility 10 miles    
Events      
T = Trace of Precipitation, MM = Missing Value Source: NWS Daily Summary

Daily Weather History Graph

Daily Weather History Graph

Search for Another Location

Airport:

Trip Planner

Search our weather history database for the weather conditions in past years. The results will help you decide how hot, cold, wet, or windy it might be!

Date:

Astronomy

Feb. 16, 2013 Rise Set
Actual Time 6:35 AM PST 5:38 PM PST
Civil Twilight 6:10 AM PST 6:03 PM PST
Nautical Twilight 5:40 AM PST 6:32 PM PST
Astronomical Twilight 5:12 AM PST 7:01 PM PST
Moon 10:12 AM PST (2/16) No Moon Set
Length of Visible Light 11h 53m
Length of Day
11h 02m
Waxing Crescent, 40% of the Moon is Illuminated
Feb 16
Waxing Crescent
Feb 17
First Quarter
Feb 25
Full
Mar 4
Last Quarter
Mar 11
New

Hourly Weather History & Observations

Time (PST) Temp. Dew Point Humidity Pressure Visibility Wind Dir Wind Speed Gust Speed Precip Events Conditions
12:53 AM 59.0 °F 28.9 °F 32% 30.14 in 10.0 mi WNW 3.5 mph - N/A   Clear
1:53 AM 57.0 °F 28.9 °F 34% 30.13 in 10.0 mi WNW 4.6 mph - N/A   Clear
2:53 AM 55.0 °F 28.0 °F 35% 30.12 in 10.0 mi WNW 4.6 mph - N/A   Clear
3:53 AM 54.0 °F 28.0 °F 37% 30.12 in 10.0 mi WNW 4.6 mph - N/A   Clear
4:53 AM 54.0 °F 26.1 °F 34% 30.12 in 10.0 mi NW 3.5 mph - N/A   Clear
5:53 AM 54.0 °F 25.0 °F 33% 30.13 in 10.0 mi WNW 3.5 mph - N/A   Clear
6:53 AM 54.0 °F 24.1 °F 31% 30.13 in 10.0 mi WNW 4.6 mph - N/A   Clear
7:53 AM 57.0 °F 28.0 °F 33% 30.14 in 10.0 mi WNW 3.5 mph - N/A   Clear
8:53 AM 64.9 °F 30.0 °F 27% 30.15 in 10.0 mi NNW 3.5 mph - N/A   Clear
9:53 AM 75.0 °F 28.0 °F 18% 30.15 in 10.0 mi Calm Calm - N/A   Clear
10:53 AM 79.0 °F 23.0 °F 13% 30.14 in 10.0 mi Calm Calm - N/A   Clear
11:53 AM 82.0 °F 21.9 °F 11% 30.10 in 10.0 mi Variable 3.5 mph - N/A   Clear
12:53 PM 81.0 °F 21.0 °F 11% 30.06 in 10.0 mi Variable 4.6 mph - N/A   Clear
1:53 PM 80.1 °F 18.0 °F 10% 30.03 in 10.0 mi SSW 8.1 mph - N/A   Clear
2:53 PM 81.0 °F 17.1 °F 9% 30.01 in 10.0 mi WSW 9.2 mph - N/A   Clear
3:53 PM 79.0 °F 19.9 °F 11% 29.99 in 10.0 mi NW 12.7 mph - N/A   Clear
4:53 PM 75.0 °F 21.9 °F 14% 29.99 in 10.0 mi WNW 11.5 mph - N/A   Clear
5:53 PM 71.1 °F 23.0 °F 16% 29.99 in 10.0 mi West 6.9 mph - N/A   Clear
6:53 PM 66.9 °F 25.0 °F 21% 29.99 in 10.0 mi WNW 6.9 mph - N/A   Clear
7:53 PM 63.0 °F 28.9 °F 28% 29.98 in 10.0 mi WNW 3.5 mph - N/A   Clear
8:53 PM 62.1 °F 30.0 °F 30% 29.99 in 10.0 mi WNW 4.6 mph - N/A   Clear
9:53 PM 59.0 °F 30.9 °F 35% 29.99 in 10.0 mi Calm Calm - N/A   Clear
10:53 PM 55.0 °F 33.1 °F 43% 29.98 in 10.0 mi Calm Calm - N/A   Clear
11:53 PM 55.0 °F 33.1 °F 43% 29.98 in 10.0 mi Calm Calm - N/A   Clear